Location: Alessandria
(44.9000°N, 8.6170°E)
Time: 01:58:57
(UTC+02:00)

ISS - Pass Details

Date: 11 May 2021
Orbit: 417 x 422 km, 51.6° (Epoch: 14 June)

Event Time Altitude Azimuth Distance (km) Brightness Sun altitude
Exits shadow 03:36:33 - 302° (WNW) 1,680 -0.7 -20.1°
Reaches altitude 10° 03:37:03 10° 306° (NW) 1,508 -0.9 -20.1°
Maximum altitude 03:39:57 26° 5° (N) 881 -1.5 -19.8°
Drops below altitude 10° 03:42:51 10° 64° (ENE) 1,509 0.0 -19.5°
Sets 03:45:11 0° 78° (ENE) 2,374 0.8 -19.2°
